Fairbanks, AK

1:12 AM AKDT on September 30, 2016 (GMT -0800)
Fairbanks International

Weather History for PAFA - May, 2013

Change the Weather History Date:

Tuesday, May 21, 2013

  Actual Average Record
Temperature  
Mean Temperature 47 °F 52 °F  
Max Temperature 64 °F 63 °F 82 °F (2002)
Min Temperature 29 °F 40 °F 25 °F (1964)
Degree Days  
Heating Degree Days 18 14  
Month to date heating degree days 602 371  
Since 1 July heating degree days 14761 13395  
Cooling Degree Days 0 0  
Month to date cooling degree days 0 0  
Year to date cooling degree days 0 0  
Moisture  
Dew Point 18 °F    
Average Humidity 32    
Maximum Humidity 69    
Minimum Humidity 8    
Precipitation  
Precipitation 0.00 in 0.02 in 0.38 in (1982)
Month to date precipitation 0.15 0.37  
Year to date precipitation 2.34 1.93  
Snow  
Snow 0.00 in 0.00 in T in (1950)
Month to date snowfall 2.0 0.8  
Since 1 July snowfall 68.6 64.9  
Snow Depth 0.00 in    
Sea Level Pressure  
Sea Level Pressure 30.33 in    
Wind  
Wind Speed 4 mph (ENE)    
Max Wind Speed 9 mph    
Max Gust Speed -    
Visibility 10 miles    
Events      
T = Trace of Precipitation, MM = Missing Value Source: NWS Daily Summary

Daily Weather History Graph

Daily Weather History Graph

Search for Another Location

Airport or City:

Trip Planner

Search our weather history database for the weather conditions in past years. The results will help you decide how hot, cold, wet, or windy it might be!

Date:

Astronomy

May. 21, 2013 Rise Set
Actual Time 4:07 AM AKDT 11:31 PM AKDT
Civil Twilight 2:20 AM AKDT 1:15 AM AKDT
Nautical Twilight Sun does not set Sun does not set
Astronomical Twilight Sun does not set Sun does not set
Moon 6:26 PM AKDT (5/21) 3:25 AM AKDT (5/21)
Length of Visible Light 22h 55m
Length of Day
19h 24m
Waxing Gibbous, 85% of the Moon is Illuminated
May 21
Waxing Gibbous
May 24
Full
May 31
Last Quarter
Jun 8
New
Jun 16
First Quarter

Hourly Weather History & Observations

Time (AKDT) Temp. Windchill Dew Point Humidity Pressure Visibility Wind Dir Wind Speed Gust Speed Precip Events Conditions
12:53 AM 37.0 °F 32.4 °F 23.0 °F 57% 30.43 in 10.0 mi NNE 5.8 mph - N/A   Partly Cloudy
1:53 AM 35.1 °F - 23.0 °F 61% 30.44 in 10.0 mi Calm Calm - N/A   Partly Cloudy
2:53 AM 34.0 °F 28.0 °F 19.9 °F 56% 30.45 in 10.0 mi NE 6.9 mph - N/A   Partly Cloudy
3:53 AM 33.1 °F 28.7 °F 19.9 °F 59% 30.46 in 10.0 mi NE 4.6 mph - N/A   Scattered Clouds
4:53 AM 30.0 °F 25.2 °F 21.0 °F 69% 30.46 in 10.0 mi NNE 4.6 mph - N/A   Scattered Clouds
5:53 AM 33.1 °F 28.7 °F 23.0 °F 66% 30.46 in 10.0 mi NNE 4.6 mph - N/A   Scattered Clouds
6:53 AM 37.0 °F 33.3 °F 19.9 °F 50% 30.46 in 10.0 mi NE 4.6 mph - N/A   Scattered Clouds
7:53 AM 39.0 °F - 19.0 °F 45% 30.45 in 10.0 mi Calm Calm - N/A   Mostly Cloudy
8:53 AM 43.0 °F 41.3 °F 19.0 °F 38% 30.43 in 10.0 mi NNE 3.5 mph - N/A   Mostly Cloudy
9:53 AM 46.0 °F 43.9 °F 17.1 °F 31% 30.41 in 10.0 mi East 4.6 mph - N/A   Mostly Cloudy
10:53 AM 50.0 °F - 16.0 °F 26% 30.40 in 10.0 mi ENE 5.8 mph - N/A   Mostly Cloudy
11:53 AM 53.1 °F - 15.1 °F 22% 30.38 in 10.0 mi Variable 5.8 mph - N/A   Mostly Cloudy
12:53 PM 54.0 °F - 18.0 °F 24% 30.35 in 10.0 mi Variable 5.8 mph - 0.00 in   Mostly Cloudy
1:53 PM 57.0 °F - 16.0 °F 20% 30.33 in 10.0 mi Variable 6.9 mph - N/A   Scattered Clouds
2:53 PM 59.0 °F - 18.0 °F 20% 30.30 in 10.0 mi ENE 6.9 mph - N/A   Partly Cloudy
3:53 PM 59.0 °F - 16.0 °F 19% 30.27 in 10.0 mi Calm Calm - N/A   Scattered Clouds
4:53 PM 60.8 °F - 12.2 °F 15% 30.25 in 10.0 mi East 9.2 mph - N/A   Partly Cloudy
5:53 PM 62.1 °F - 15.1 °F 16% 30.22 in 10.0 mi East 5.8 mph - N/A   Partly Cloudy
6:53 PM 62.1 °F - 15.1 °F 16% 30.20 in 10.0 mi East 5.8 mph - N/A   Partly Cloudy
7:53 PM 63.0 °F - 14.0 °F 15% 30.17 in 10.0 mi ENE 4.6 mph - N/A   Partly Cloudy
8:53 PM 62.1 °F - 12.9 °F 15% 30.16 in 10.0 mi ENE 5.8 mph - N/A   Partly Cloudy
9:53 PM 61.0 °F - 15.1 °F 17% 30.15 in 10.0 mi East 4.6 mph - N/A   Partly Cloudy
10:53 PM 55.0 °F - 18.0 °F 23% 30.14 in 10.0 mi Calm Calm - N/A   Partly Cloudy
11:53 PM 48.0 °F - 26.1 °F 42% 30.13 in 10.0 mi Calm Calm - N/A   Partly Cloudy